STARLINK-3788 (52271 NORAD) Tracking and Keplerian Element Data

This shows tracking and keplerian element data for the satellite.

Feedback or suggestion? Click here.




ElementValue
Catalog52271
NameSTARLINK-3788
Epoch Orbit130
Epoch Day167.08334491
Epoch Year2022
RAAN106.8063
Inclination53.2173
Eccentricity0.000174
Argument of Perigee42.0263
Mean Anonmoly54.8486
Mean Motion15.26349193
Decay Rate-0.00727039
L11 52271U 22041L 22167.08334491 -.00727039 00000+0 -29610-1 0 9994
L22 52271 53.2173 106.8063 0001740 42.0263 54.8486 15.26349193 1305

Live tracking and technical data element details for STARLINK-3788 (NORAD 52271). STARLINK-3788 can be tracked NOW for your location showing map with azimuth and elevation plus other details from your city location.

Track the satellite on the map from your city or location and see movement details for azimuth, elevation, latitude, longitude, range, height, and movement on the map or in text.







IsCatalogInMostPopularTable: catalog: 52271, numindb: 2
Update: records affected: 1



GetName: 52271 STARLINK-3788

Hit Count: updated at: Mon, 27 Jun 2022 05:12:41 GMT